This demonstration page uses our WeatherBlox Daily Observations layout. Learn more.

Hourly Observations for November 4, 2015

Temp ( °F °C ) Dew Point ( °F °C ) Humidity (%) Winds ( mph kmh ) Pressure ( in mb ) Visibility ( mi km ) Precip ( " mm )
12:15 am 00:15 Clear 58 14.6 50 9.9 74 74 S 13 20 29.74 1007 10 16.0934 0 0
12:35 am 00:35 Clear 58 14.2 50 10 76 76 S 10 17 29.74 1007 10 16.0934 0 0
12:55 am 00:55 Clear 58 14.5 50 10.1 75 75 S 12 19 29.74 1007 10 16.0934 0 0
1:15 am 01:15 Clear 57 14.1 50 10.1 77 77 S 10 17 29.74 1007 10 16.0934 0 0
1:35 am 01:35 Clear 57 13.7 50 10.2 80 80 S 10 17 29.74 1007 10 16.0934 0 0
1:55 am 01:55 Clear 56 13.6 51 10.3 81 81 S 12 19 29.74 1007 10 16.0934 0 0
2:15 am 02:15 Clear 56 13.6 51 10.3 81 81 S 12 19 29.74 1007 10 16.0934 0 0
2:35 am 02:35 Clear 56 13.2 51 10.5 84 84 S 9 15 29.77 1008 10 16.0934 0 0
2:55 am 02:55 Clear 55 12.9 51 10.5 85 85 S 8 13 29.77 1008 10 16.0934 0 0
3:15 am 03:15 Clear 54 12.4 51 10.3 87 87 S 6 9 29.77 1008 10 16.0934 0 0
3:35 am 03:35 Clear 54 12.2 51 10.3 88 88 S 7 11 29.77 1008 10 16.0934 0 0
3:55 am 03:55 Clear 54 12.2 51 10.3 88 88 SSE 8 13 29.77 1008 10 16.0934 0 0
4:15 am 04:15 Clear 54 12.2 51 10.5 89 89 S 8 13 29.77 1008 10 16.0934 0 0
4:35 am 04:35 Clear 54 12.1 51 10.5 90 90 S 8 13 29.77 1008 10 16.0934 0 0
4:55 am 04:55 Clear 54 12.2 51 10.5 89 89 S 7 11 29.77 1008 10 16.0934 0 0
5:15 am 05:15 Clear 53 11.8 50 10.2 90 90 SSE 6 9 29.77 1008 10 16.0934 0 0
5:35 am 05:35 Clear 54 12 51 10.6 91 91 SSE 7 11 29.77 1008 10 16.0934 0 0
5:55 am 05:55 Clear 53 11.9 51 10.5 91 91 SSE 9 15 29.77 1008 10 16.0934 0 0
6:15 am 06:15 Clear 53 11.7 51 10.4 92 92 SSE 10 17 29.77 1008 10 16.0934 0 0
6:35 am 06:35 Clear 53 11.9 51 10.6 92 92 S 9 15 29.77 1008 10 16.0934 0 0
6:55 am 06:55 Clear 52 11.3 50 10.2 93 93 S 8 13 29.77 1008 10 16.0934 0 0
7:15 am 07:15 Sunny 53 11.6 51 10.6 94 94 S 12 19 29.77 1008 10 16.0934 0 0
7:35 am 07:35 Sunny 53 11.7 51 10.7 94 94 S 10 17 29.77 1008 7 11.26538 0 0
7:55 am 07:55 Sunny 54 12 52 11 94 94 S 10 17 29.77 1008 7 11.26538 0 0
8:15 am 08:15 Sunny 55 12.6 53 11.5 93 93 S 10 17 29.77 1008 10 16.0934 0 0
8:35 am 08:35 Partly Cloudy 56 13.4 54 12 91 91 S 12 19 29.77 1008 10 16.0934 0 0
8:55 am 08:55 Sunny 57 13.7 54 12 90 90 S 14 22 29.74 1007 10 16.0934 0 0
9:15 am 09:15 Mostly Cloudy 58 14.2 55 12.5 90 90 S 16 26 29.74 1007 10 16.0934 0 0
9:35 am 09:35 Mostly Cloudy 59 14.9 55 12.5 86 86 S 17 28 29.74 1007 10 16.0934 0 0
9:55 am 09:55 Partly Cloudy 61 15.9 54 12.3 79 79 S 22 35 29.74 1007 10 16.0934 0 0
10:15 am 10:15 Sunny 61 16.3 54 12.1 76 76 S 22 35 29.74 1007 10 16.0934 0 0
10:35 am 10:35 Sunny 63 17.2 54 12 72 72 S 24 39 29.74 1007 10 16.0934 0 0
10:55 am 10:55 Sunny 64 17.9 54 12 69 69 S 22 35 29.71 1006 10 16.0934 0 0
11:15 am 11:15 Sunny 65 18.6 53 11.8 65 65 S 20 31 29.71 1006 10 16.0934 0 0
11:35 am 11:35 Sunny 67 19.3 53 11.9 62 62 S 21 33 29.71 1006 10 16.0934 0 0
11:55 am 11:55 Sunny 68 20.2 53 11.5 58 58 S 22 35 29.71 1006 10 16.0934 0 0
12:15 pm 12:15 Sunny 69 20.8 53 11.5 55 55 S 20 31 29.68 1005 10 16.0934 0 0
12:35 pm 12:35 Sunny 70 21 53 11.5 55 55 S 17 28 29.68 1005 10 16.0934 0 0
12:55 pm 12:55 Sunny 70 21.2 53 11.6 54 54 S 21 33 29.68 1005 10 16.0934 0 0
1:15 pm 13:15 Sunny 71 21.5 53 11.5 53 53 S 20 31 29.65 1004 10 16.0934 0 0
1:35 pm 13:35 Sunny 72 22 53 11.6 52 52 S 22 35 29.65 1004 10 16.0934 0 0
1:55 pm 13:55 Sunny 72 22 53 11.8 52 52 S 26 43 29.65 1004 10 16.0934 0 0
2:15 pm 14:15 Sunny 71 21.9 53 11.7 52 52 S 21 33 29.65 1004 10 16.0934 0 0
2:35 pm 14:35 Sunny 72 22.2 53 11.5 51 51 S 24 39 29.65 1004 10 16.0934 0 0
2:55 pm 14:55 Sunny 72 22 53 11.4 51 51 S 20 31 29.65 1004 10 16.0934 0 0
3:15 pm 15:15 Sunny 72 22.2 53 11.5 51 51 S 18 30 29.65 1004 10 16.0934 0 0
3:35 pm 15:35 Sunny 72 22 53 11.6 52 52 SSE 22 35 29.65 1004 10 16.0934 0 0
3:55 pm 15:55 Sunny 71 21.5 53 11.7 54 54 S 24 39 29.65 1004 10 16.0934 0 0
4:15 pm 16:15 Sunny 69 20.7 53 11.8 57 57 S 22 35 29.65 1004 10 16.0934 0 0
4:35 pm 16:35 Sunny 68 20.1 54 12.2 61 61 S 24 39 29.68 1005 10 16.0934 0 0
4:55 pm 16:55 Sunny 67 19.6 54 12.1 62 62 S 20 31 29.68 1005 10 16.0934 0 0
5:15 pm 17:15 Sunny 67 19.2 54 12.3 64 64 SSE 17 28 29.68 1005 10 16.0934 0 0
5:35 pm 17:35 Clear 66 18.8 54 12.3 66 66 S 22 35 29.65 1004 10 16.0934 0 0
5:55 pm 17:55 Clear 65 18.5 54 12.3 67 67 SSE 20 31 29.65 1004 10 16.0934 0 0
6:15 pm 18:15 Clear 64 18 55 12.5 70 70 SSE 20 31 29.65 1004 10 16.0934 0 0
6:35 pm 18:35 Clear 64 17.5 55 12.8 74 74 SSE 18 30 29.65 1004 10 16.0934 0 0
6:55 pm 18:55 Clear 64 17.5 55 13 75 75 S 20 31 29.65 1004 10 16.0934 0 0
7:15 pm 19:15 Mostly Cloudy 64 17.7 55 13 74 74 S 14 22 29.68 1005 10 16.0934 0 0
7:35 pm 19:35 Cloudy 65 18.3 55 12.5 69 69 S 17 28 29.68 1005 10 16.0934 0 0
7:55 pm 19:55 Cloudy 64 18 54 12 68 68 S 23 37 29.68 1005 10 16.0934 0 0
8:15 pm 20:15 Cloudy 64 17.7 54 12 69 69 S 25 41 29.65 1004 10 16.0934 0 0
8:35 pm 20:35 Cloudy 64 17.5 53 11.9 70 70 S 22 35 29.65 1004 10 16.0934 0 0
8:55 pm 20:55 Cloudy 64 17.5 53 11.8 69 69 S 29 46 29.65 1004 10 16.0934 0 0
9:15 pm 21:15 Cloudy 63 17.2 54 12.1 72 72 S 25 41 29.65 1004 10 16.0934 0 0
9:35 pm 21:35 Cloudy 63 17 54 12.3 74 74 S 28 44 29.65 1004 10 16.0934 0 0
9:55 pm 21:55 Mostly Cloudy 63 17 55 12.5 75 75 S 24 39 29.65 1004 10 16.0934 0 0
10:15 pm 22:15 Partly Cloudy 63 17 55 12.5 75 75 S 30 48 29.65 1004 10 16.0934 0 0
10:35 pm 22:35 Partly Cloudy 62 16.6 55 12.5 77 77 S 29 46 29.65 1004 10 16.0934 0 0
10:55 pm 22:55 Mostly Cloudy with Rain 61 16.1 56 13.3 84 84 SSW 25 41 29.71 1006 5 8.0467 0.01 0.254
11:15 pm 23:15 Cloudy 60 15.6 56 13.2 86 86 SSW 30 48 29.71 1006 10 16.0934 0.01 0.254
11:35 pm 23:35 Cloudy with Light Rain 59 15 56 13.6 91 91 S 17 28 29.68 1005 7 11.26538 0.03 0.762
11:55 pm 23:55 Partly Cloudy 58 14.6 56 13.2 91 91 S 15 24 29.68 1005 10 16.0934 0.03 0.762

Powered by AerisWeather